This demonstration page uses our WeatherBlox Daily Observations layout. Learn more.

Left ArrowRight Arrow

44.8408, -93.29828

Hourly Observations for September 26, 2018

Temp ( °F °C ) Dew Point ( °F °C ) Humidity (%) Winds ( mph kmh ) Pressure ( in mb ) Visibility ( mi km ) Precip ( " mm )
12:53 am 00:53 Mostly Cloudy 49 9.4 45 7.2 86 86 WSW 6 9 30.01 1016 10 16 0.00 0.00
1:53 am 01:53 Cloudy 50 10 46 7.8 86 86 W 7 11 30.01 1016 10 16 0.00 0.00
2:53 am 02:53 Cloudy 50 10 46 7.8 86 86 NW 10 17 30.01 1016 10 16 0.00 0.00
3:53 am 03:53 Cloudy 50 10 41 5 71 71 NW 17 28 30.02 1017 10 16 0.00 0.00
4:53 am 04:53 Mostly Clear 46 7.8 40 4.4 79 79 NNW 7 11 30.05 1018 10 16 0.00 0.00
5:53 am 05:53 Clear 45 7.2 39 3.9 80 80 Calm 30.07 1018 10 16 0.00 0.00
6:53 am 06:53 Clear 45 7.2 38 3.3 77 77 WSW 3 6 30.09 1019 10 16 0.00 0.00
7:53 am 07:53 Partly Cloudy 45 7.2 41 5 86 86 SW 7 11 30.10 1019 10 16 0.00 0.00
8:13 am 08:13 Mostly Cloudy 47 8.3 42 5.6 83 83 WSW 9 15 30.09 1019 10 16 0.00 0.00
8:32 am 08:32 Cloudy 47 8.3 45 7.2 93 93 W 12 19 30.09 1019 10 16 0.00 0.00
8:53 am 08:53 Cloudy 47 8.3 45 7.2 93 93 W 9 15 30.11 1020 10 16 0.00 0.00
9:30 am 09:30 Cloudy 50 10 46 7.8 86 86 W 9 15 30.12 1020 10 16 0.00 0.00
9:38 am 09:38 Cloudy 51 10.6 46 7.8 83 83 W 8 13 30.12 1020 10 16 0.00 0.00
9:53 am 09:53 Mostly Cloudy 50 10 46 7.8 86 86 WSW 7 11 30.11 1020 10 16 0.00 0.00
10:25 am 10:25 Partly Cloudy 53 11.7 46 7.8 77 77 WSW 7 11 30.09 1019 10 16 0.00 0.00
10:53 am 10:53 Mostly Cloudy 54 12.2 46 7.8 75 75 WSW 6 9 30.11 1020 10 16 0.00 0.00
11:06 am 11:06 Mostly Cloudy 56 13.3 46 7.8 70 70 W 10 17 30.09 1019 10 16 0.00 0.00
11:36 am 11:36 Mostly Cloudy 55 12.8 44 6.7 67 67 W 12 19 30.09 1019 10 16 0.00 0.00
11:53 am 11:53 Mostly Cloudy 57 13.9 44 6.7 62 62 W 15 24 30.10 1019 10 16 0.00 0.00
12:53 pm 12:53 Partly Cloudy 58 14.4 42 5.6 56 56 WNW 13 20 30.11 1020 10 16 0.00 0.00
1:53 pm 13:53 Mostly Sunny 59 15 39 3.9 48 48 W 10 17 30.10 1019 10 16 0.00 0.00
2:53 pm 14:53 Mostly Sunny 60 15.6 37 2.8 42 42 WNW 12 19 30.08 1019 10 16 0.00 0.00
3:53 pm 15:53 Mostly Sunny 61 16.1 37 2.8 41 41 WSW 15 24 30.06 1018 10 16 0.00 0.00
4:53 pm 16:53 Mostly Sunny 61 16.1 37 2.8 41 41 W 12 19 30.04 1017 10 16 0.00 0.00
5:53 pm 17:53 Mostly Sunny 61 16.1 34 1.1 36 36 W 12 19 30.03 1017 10 16 0.00 0.00
6:53 pm 18:53 Partly Cloudy 60 15.6 35 1.7 39 39 SW 7 11 30.02 1017 10 16 0.00 0.00
7:53 pm 19:53 Partly Cloudy 58 14.4 38 3.3 48 48 S 7 11 30.01 1016 10 16 0.00 0.00
8:53 pm 20:53 Mostly Clear 56 13.3 38 3.3 51 51 S 9 15 29.99 1016 10 16 0.00 0.00
9:53 pm 21:53 Partly Cloudy 56 13.3 39 3.9 53 53 S 10 17 29.97 1015 10 16 0.00 0.00
10:53 pm 22:53 Cloudy 57 13.9 38 3.3 49 49 S 7 11 29.95 1014 10 16 0.00 0.00
11:53 pm 23:53 Cloudy 58 14.4 38 3.3 48 48 SSW 10 17 29.92 1013 10 16 0.00 0.00

Powered by AerisWeather